Regional Weather Roundup
Issued by NWS

Home | Current Version | Previous Version | Graphics & Text | Print | Product List | Glossary On
Versions: 1 2 3 4 5 6 7 8 9 10 11 12 13 14 15 16 17 18 19 20 21 22 23 24 25 26 27 28 29 30 31 32 33 34 35 36 37 38 39 40 41 42 43 44 45 46 47 48 49 50
000
ASUS43 KOAX 260602
RWRNE

WEATHER ROUNDUP FOR NEBRASKA
NATIONAL WEATHER SERVICE OMAHA NE
100 AM CDT MON SEP 26 2016

NOTES: SATELLITE DATA IS BEING USED TO AUGMENT CLOUD COVER ABOVE
       12000 FEET.
       "FAIR" INDICATES FEW OR NO CLOUDS BELOW 12,000 FEET WITH NO
       SIGNIFICANT WEATHER AND/OR OBSTRUCTIONS TO VISIBILITY.

  * THESE STATIONS DO NOT REPORT WEATHER SUCH AS RAIN...SNOW OR FOG.

NEZ001>004-019>022-054>056-260700-
NEBRASKA PANHANDLE

CITY           SKY/WX    TMP DP  RH WIND       PRES   REMARKS
SCOTTSBLUFF    CLEAR     43  37  79 CALM      30.40S
6HR MIN TEMP:  42; 6HR MAX TEMP:  65;

ALLIANCE       CLEAR     33  31  92 W7        30.38R WCI  27
6HR MIN TEMP:  33; 6HR MAX TEMP:  61;

CHADRON        CLEAR     40  34  79 SW6       30.36S
6HR MIN TEMP:  39; 6HR MAX TEMP:  63;

KIMBALL        CLEAR     41  36  83 SW6       30.42F
SIDNEY         CLEAR     37  33  85 W7        30.42S WCI  32
6HR MIN TEMP:  37; 6HR MAX TEMP:  62; 6HR PCP: TRACE;

$$

NEZ057>060-069>072-079>082-260700-
SOUTHWEST NEBRASKA

CITY           SKY/WX    TMP DP  RH WIND       PRES   REMARKS
NORTH PLATTE   CLEAR     39  31  72 W6        30.36S WCI  35
6HR MIN TEMP:  38; 6HR MAX TEMP:  67;

IMPERIAL       CLEAR     46  34  62 CALM      30.39S
6HR MIN TEMP:  45; 6HR MAX TEMP:  67;

LEXINGTON      CLEAR     40  32  73 W7        30.33F
MCCOOK         CLEAR     42  34  73 NW6       30.36R
6HR MIN TEMP:  41; 6HR MAX TEMP:  67;

OGALLALA       CLEAR     41  35  77 W7        30.38S
$$

NEZ005>010-023>029-035>040-094-260700-
NORTH CENTRAL NEBRASKA

CITY           SKY/WX    TMP DP  RH WIND       PRES   REMARKS
VALENTINE      CLEAR     39  31  72 SW6       30.31F WCI  35
6HR MIN TEMP:  38; 6HR MAX TEMP:  63;

AINSWORTH      CLEAR     43  33  67 W7        30.31S
BROKEN BOW     CLEAR     34  31  88 CALM      30.32S
6HR MIN TEMP:  34; 6HR MAX TEMP:  65;

O`NEILL        CLEAR     45  32  60 W6        30.28S
ORD            CLEAR     38  33  82 NW6       30.29F WCI  33
6HR MIN TEMP:  38; 6HR MAX TEMP:  64;

THEDFORD       CLEAR     42  32  68 CALM      30.35S
$$

NEZ041-046>049-061>064-073>077-083>087-260700-
SOUTH CENTRAL NEBRASKA

CITY           SKY/WX    TMP DP  RH WIND       PRES   REMARKS
GRAND ISLAND   CLEAR     44  36  73 W8        30.30S
6HR MIN TEMP:  44; 6HR MAX TEMP:  66;

AURORA         CLEAR     44  40  86 W6        30.29S
HASTINGS       CLEAR     45  36  70 NW6       30.31S
6HR MIN TEMP:  43; 6HR MAX TEMP:  67;

HEBRON         CLEAR     48  39  71 W5        30.29S
HOLDREGE       CLEAR     43  31  63 W5        30.32S
KEARNEY *      CLEAR     46  28  49 NW7       30.31F
YORK           CLEAR     45  39  81 NW9       30.28S
$$

NEZ011>018-030>034-042>045-260700-
NORTHEAST NEBRASKA

CITY           SKY/WX    TMP DP  RH WIND       PRES   REMARKS
NORFOLK        CLEAR     49  35  58 W12       30.25S
6HR MIN TEMP:  48; 6HR MAX TEMP:  64;

ALBION         CLEAR     42  37  80 CALM      30.28S
BLAIR          CLEAR     53  40  61 W7        30.22R
FREMONT        CLEAR     47  40  75 W7        30.24R
TEKAMAH        CLEAR     51  39  63 W7        30.21S
6HR MIN TEMP:  51; 6HR MAX TEMP:  66;

WAYNE          CLEAR     46  38  73 W6        30.24R
$$

NEZ050>053-065>068-078-088>093-260700-
SOUTHEAST NEBRASKA

CITY           SKY/WX    TMP DP  RH WIND       PRES   REMARKS
LINCOLN        CLEAR     46  40  79 N5        30.26S
6HR MIN TEMP:  46; 6HR MAX TEMP:  70;

OMAHA EPPLEY   CLEAR     53  39  59 NW7       30.22R
6HR MIN TEMP:  52; 6HR MAX TEMP:  66;

BEATRICE       CLEAR     48  42  79 CALM      30.26S
FALLS CITY     CLEAR     52  47  83 NW8       30.23R
6HR MIN TEMP:  52; 6HR MAX TEMP:  68;

NEBRASKA CITY  CLEAR     54  32  43 NW8       30.23S
PLATTSMOUTH    CLEAR     50  40  67 W7        30.22S
$$

NEZ044-045-051>053-067-260700-
OMAHA AREA

CITY           SKY/WX    TMP DP  RH WIND       PRES   REMARKS
OMAHA EPPLEY   CLEAR     53  39  59 NW7       30.22R
6HR MIN TEMP:  52; 6HR MAX TEMP:  66;

BLAIR          CLEAR     53  40  61 W7        30.22R
FREMONT        CLEAR     47  40  75 W7        30.24R
MILLARD        CLEAR     55  41  59 NW5       30.23R
OFFUTT AFB     CLEAR     49  43  80 NW7       30.21R
PLATTSMOUTH    CLEAR     50  40  67 W7        30.22S
WAHOO          FAIR      53  39  60 W7        30.24S
$$



USA.gov is the U.S. government's official web portal to all federal, state and local government web resources and services.